owner,sensor,date,latitude,longitude,vertical_datum,wind_speed,wind_to_direction,wind_speed_of_gust,qcFlag 
LUMCON,ioos:station:LUMCON:wisl1:1,2019-06-01T00:00:00Z,29.1144,-90.1840,1.0,4.5,182.0,28.7,'11111222,11111222,11111222' 
LUMCON,ioos:station:LUMCON:wisl1:1,2019-06-01T00:15:00Z,29.1144,-90.1840,1.0,3.9,174.0,28.5,'11111222,11111222,11111222' 
LUMCON,ioos:station:LUMCON:wisl1:1,2019-06-01T00:30:00Z,29.1144,-90.1840,1.0,2.7,175.0,28.5,'11111222,11111222,11111222' 
LUMCON,ioos:station:LUMCON:wisl1:1,2019-06-01T00:45:00Z,29.1144,-90.1840,1.0,3.5,175.0,28.5,'11111222,11111222,11111222' 
LUMCON,ioos:station:LUMCON:wisl1:1,2019-06-01T01:00:00Z,29.1144,-90.1840,1.0,2.3,184.0,28.4,'11111222,11111222,11111222' 
LUMCON,ioos:station:LUMCON:wisl1:1,2019-06-01T01:15:00Z,29.1144,-90.1840,1.0,3.0,184.0,28.3,'11111222,11111222,11111222' 
LUMCON,ioos:station:LUMCON:wisl1:1,2019-06-01T01:30:00Z,29.1144,-90.1840,1.0,2.9,219.0,28.3,'11111222,11111222,11111222' 
LUMCON,ioos:station:LUMCON:wisl1:1,2019-06-01T01:45:00Z,29.1144,-90.1840,1.0,2.7,203.0,28.1,'11111222,11111222,11111222' 
LUMCON,ioos:station:LUMCON:wisl1:1,2019-06-01T02:00:00Z,29.1144,-90.1840,1.0,2.7,212.0,28.1,'11111222,11111222,11111222' 
LUMCON,ioos:station:LUMCON:wisl1:1,2019-06-01T02:15:00Z,29.1144,-90.1840,1.0,2.2,192.0,28.0,'11111222,11111222,11111222' 
LUMCON,ioos:station:LUMCON:wisl1:1,2019-06-01T02:30:00Z,29.1144,-90.1840,1.0,3.0,218.0,28.0,'11111222,11111222,11111222' 
LUMCON,ioos:station:LUMCON:wisl1:1,2019-06-01T02:45:00Z,29.1144,-90.1840,1.0,2.3,232.0,27.9,'11111222,11111222,11111222' 
LUMCON,ioos:station:LUMCON:wisl1:1,2019-06-01T03:00:00Z,29.1144,-90.1840,1.0,2.5,219.0,27.7,'11111222,11111222,11111222' 
LUMCON,ioos:station:LUMCON:wisl1:1,2019-06-01T03:15:00Z,29.1144,-90.1840,1.0,2.0,197.0,27.7,'11111222,11111222,11111222' 
LUMCON,ioos:station:LUMCON:wisl1:1,2019-06-01T03:30:00Z,29.1144,-90.1840,1.0,2.2,190.0,28.0,'11111222,11111222,11111222' 
LUMCON,ioos:station:LUMCON:wisl1:1,2019-06-01T03:45:00Z,29.1144,-90.1840,1.0,2.7,187.0,28.0,'11111222,11111222,11111222' 
LUMCON,ioos:station:LUMCON:wisl1:1,2019-06-01T04:00:00Z,29.1144,-90.1840,1.0,3.4,164.0,28.1,'11111222,11111222,11111222' 
LUMCON,ioos:station:LUMCON:wisl1:1,2019-06-01T04:15:00Z,29.1144,-90.1840,1.0,3.5,176.0,28.0,'11111222,11111222,11111222' 
LUMCON,ioos:station:LUMCON:wisl1:1,2019-06-01T04:30:00Z,29.1144,-90.1840,1.0,3.6,159.0,27.9,'11111222,11111222,11111222' 
LUMCON,ioos:station:LUMCON:wisl1:1,2019-06-01T04:45:00Z,29.1144,-90.1840,1.0,2.9,168.0,28.0,'11111222,11111222,11111222' 
LUMCON,ioos:station:LUMCON:wisl1:1,2019-06-01T05:00:00Z,29.1144,-90.1840,1.0,3.6,191.0,27.7,'11111222,11111222,11111222' 
LUMCON,ioos:station:LUMCON:wisl1:1,2019-06-01T05:15:00Z,29.1144,-90.1840,1.0,3.0,178.0,27.7,'11111222,11111222,11111222' 
LUMCON,ioos:station:LUMCON:wisl1:1,2019-06-01T05:30:00Z,29.1144,-90.1840,1.0,2.7,200.0,27.6,'11111222,11111222,11111222' 
LUMCON,ioos:station:LUMCON:wisl1:1,2019-06-01T05:45:00Z,29.1144,-90.1840,1.0,4.1,175.0,27.6,'11111222,11111222,11111222' 
LUMCON,ioos:station:LUMCON:wisl1:1,2019-06-01T06:00:00Z,29.1144,-90.1840,1.0,3.7,193.0,27.6,'11111222,11111222,11111222' 
LUMCON,ioos:station:LUMCON:wisl1:1,2019-06-01T06:15:00Z,29.1144,-90.1840,1.0,3.3,191.0,27.5,'11111222,11111222,11111222' 
LUMCON,ioos:station:LUMCON:wisl1:1,2019-06-01T06:30:00Z,29.1144,-90.1840,1.0,3.2,186.0,27.7,'11111222,11111222,11111222' 
LUMCON,ioos:station:LUMCON:wisl1:1,2019-06-01T06:45:00Z,29.1144,-90.1840,1.0,2.2,192.0,27.7,'11111222,11111222,11111222' 
LUMCON,ioos:station:LUMCON:wisl1:1,2019-06-01T07:00:00Z,29.1144,-90.1840,1.0,2.5,187.0,27.7,'11111222,11111222,11111222' 
LUMCON,ioos:station:LUMCON:wisl1:1,2019-06-01T07:15:00Z,29.1144,-90.1840,1.0,3.2,192.0,27.6,'11111222,11111222,11111222' 
LUMCON,ioos:station:LUMCON:wisl1:1,2019-06-01T07:30:00Z,29.1144,-90.1840,1.0,3.7,195.0,27.6,'11111222,11111222,11111222' 
LUMCON,ioos:station:LUMCON:wisl1:1,2019-06-01T07:45:00Z,29.1144,-90.1840,1.0,3.1,192.0,27.5,'11111222,11111222,11111222' 
LUMCON,ioos:station:LUMCON:wisl1:1,2019-06-01T08:00:00Z,29.1144,-90.1840,1.0,3.5,197.0,27.4,'11111222,11111222,11111222' 
LUMCON,ioos:station:LUMCON:wisl1:1,2019-06-01T08:15:00Z,29.1144,-90.1840,1.0,2.0,197.0,27.5,'11111222,11111222,11111222' 
LUMCON,ioos:station:LUMCON:wisl1:1,2019-06-01T08:30:00Z,29.1144,-90.1840,1.0,3.8,211.0,27.4,'11111222,11111222,11111222' 
LUMCON,ioos:station:LUMCON:wisl1:1,2019-06-01T08:45:00Z,29.1144,-90.1840,1.0,2.7,218.0,27.2,'11111222,11111222,11111222' 
LUMCON,ioos:station:LUMCON:wisl1:1,2019-06-01T09:00:00Z,29.1144,-90.1840,1.0,2.3,219.0,27.2,'11111222,11111222,11111222' 
LUMCON,ioos:station:LUMCON:wisl1:1,2019-06-01T09:15:00Z,29.1144,-90.1840,1.0,1.6,221.0,27.2,'11111222,11111222,11111222' 
LUMCON,ioos:station:LUMCON:wisl1:1,2019-06-01T09:30:00Z,29.1144,-90.1840,1.0,2.2,224.0,27.1,'11111222,11111222,11111222' 
LUMCON,ioos:station:LUMCON:wisl1:1,2019-06-01T09:45:00Z,29.1144,-90.1840,1.0,1.6,231.0,27.2,'11111222,11111222,11111222' 
LUMCON,ioos:station:LUMCON:wisl1:1,2019-06-01T10:00:00Z,29.1144,-90.1840,1.0,2.1,227.0,27.0,'11111222,11111222,11111222' 
LUMCON,ioos:station:LUMCON:wisl1:1,2019-06-01T10:15:00Z,29.1144,-90.1840,1.0,2.1,232.0,27.0,'11111222,11111222,11111222' 
LUMCON,ioos:station:LUMCON:wisl1:1,2019-06-01T10:30:00Z,29.1144,-90.1840,1.0,2.3,231.0,27.1,'11111222,11111222,11111222' 
LUMCON,ioos:station:LUMCON:wisl1:1,2019-06-01T10:45:00Z,29.1144,-90.1840,1.0,1.8,235.0,27.1,'11111222,11111222,11111222' 
LUMCON,ioos:station:LUMCON:wisl1:1,2019-06-01T11:00:00Z,29.1144,-90.1840,1.0,2.1,218.0,27.2,'11111222,11111222,11111222' 
LUMCON,ioos:station:LUMCON:wisl1:1,2019-06-01T11:15:00Z,29.1144,-90.1840,1.0,2.6,247.0,27.0,'11111222,11111222,11111222' 
LUMCON,ioos:station:LUMCON:wisl1:1,2019-06-01T11:30:00Z,29.1144,-90.1840,1.0,2.1,238.0,27.5,'11111222,11111222,11111222' 
LUMCON,ioos:station:LUMCON:wisl1:1,2019-06-01T11:45:00Z,29.1144,-90.1840,1.0,2.1,207.0,27.7,'11111222,11111222,11111222' 
LUMCON,ioos:station:LUMCON:wisl1:1,2019-06-01T12:00:00Z,29.1144,-90.1840,1.0,2.7,242.0,27.9,'11111222,11111222,11111222' 
LUMCON,ioos:station:LUMCON:wisl1:1,2019-06-01T12:15:00Z,29.1144,-90.1840,1.0,3.1,253.0,28.2,'11111222,11111222,11111222' 
LUMCON,ioos:station:LUMCON:wisl1:1,2019-06-01T12:30:00Z,29.1144,-90.1840,1.0,3.3,292.0,28.5,'11111222,11111222,11111222' 
LUMCON,ioos:station:LUMCON:wisl1:1,2019-06-01T12:45:00Z,29.1144,-90.1840,1.0,2.3,278.0,28.6,'11111222,11111222,11111222' 
LUMCON,ioos:station:LUMCON:wisl1:1,2019-06-01T13:00:00Z,29.1144,-90.1840,1.0,3.7,321.0,28.4,'11111222,11111222,11111222' 
LUMCON,ioos:station:LUMCON:wisl1:1,2019-06-01T13:15:00Z,29.1144,-90.1840,1.0,1.6,316.0,28.3,'11111222,11111222,11111222' 
LUMCON,ioos:station:LUMCON:wisl1:1,2019-06-01T13:30:00Z,29.1144,-90.1840,1.0,3.1,306.0,28.8,'11111222,11111222,11111222' 
LUMCON,ioos:station:LUMCON:wisl1:1,2019-06-01T13:45:00Z,29.1144,-90.1840,1.0,2.4,308.0,28.6,'11111222,11111222,11111222' 
LUMCON,ioos:station:LUMCON:wisl1:1,2019-06-01T14:00:00Z,29.1144,-90.1840,1.0,1.6,315.0,28.6,'11111222,11111222,11111222' 
LUMCON,ioos:station:LUMCON:wisl1:1,2019-06-01T14:15:00Z,29.1144,-90.1840,1.0,2.3,301.0,29.0,'11111222,11111222,11111222' 
LUMCON,ioos:station:LUMCON:wisl1:1,2019-06-01T14:30:00Z,29.1144,-90.1840,1.0,3.1,269.0,28.3,'11111222,11111222,11111222' 
LUMCON,ioos:station:LUMCON:wisl1:1,2019-06-01T14:45:00Z,29.1144,-90.1840,1.0,2.6,292.0,28.2,'11111222,11111222,11111222' 
LUMCON,ioos:station:LUMCON:wisl1:1,2019-06-01T15:00:00Z,29.1144,-90.1840,1.0,1.5,328.0,28.2,'11111222,11111222,11111222' 
LUMCON,ioos:station:LUMCON:wisl1:1,2019-06-01T15:15:00Z,29.1144,-90.1840,1.0,2.2,32.0,28.6,'11111222,11111222,11111222' 
LUMCON,ioos:station:LUMCON:wisl1:1,2019-06-01T15:30:00Z,29.1144,-90.1840,1.0,1.3,350.0,29.1,'11111222,11111222,11111222' 
LUMCON,ioos:station:LUMCON:wisl1:1,2019-06-01T15:45:00Z,29.1144,-90.1840,1.0,1.0,315.0,29.5,'11111222,11111222,11111222' 
LUMCON,ioos:station:LUMCON:wisl1:1,2019-06-01T16:00:00Z,29.1144,-90.1840,1.0,0.1,133.0,30.0,'11111222,11111222,11111222' 
LUMCON,ioos:station:LUMCON:wisl1:1,2019-06-01T16:15:00Z,29.1144,-90.1840,1.0,0.8,23.0,29.7,'11111222,11111222,11111222' 
LUMCON,ioos:station:LUMCON:wisl1:1,2019-06-01T16:30:00Z,29.1144,-90.1840,1.0,2.1,229.0,29.4,'11111222,11111222,11111222' 
LUMCON,ioos:station:LUMCON:wisl1:1,2019-06-01T16:45:00Z,29.1144,-90.1840,1.0,1.9,154.0,29.2,'11111222,11111222,11111222' 
LUMCON,ioos:station:LUMCON:wisl1:1,2019-06-01T17:00:00Z,29.1144,-90.1840,1.0,1.4,194.0,29.4,'11111222,11111222,11111222' 
LUMCON,ioos:station:LUMCON:wisl1:1,2019-06-01T17:15:00Z,29.1144,-90.1840,1.0,2.7,247.0,29.6,'11111222,11111222,11111222' 
LUMCON,ioos:station:LUMCON:wisl1:1,2019-06-01T17:30:00Z,29.1144,-90.1840,1.0,4.3,220.0,29.8,'11111222,11111222,11111222' 
LUMCON,ioos:station:LUMCON:wisl1:1,2019-06-01T17:45:00Z,29.1144,-90.1840,1.0,4.4,235.0,30.0,'11111222,11111222,11111222' 
LUMCON,ioos:station:LUMCON:wisl1:1,2019-06-01T18:00:00Z,29.1144,-90.1840,1.0,1.8,234.0,29.9,'11111222,11111222,11111222' 
LUMCON,ioos:station:LUMCON:wisl1:1,2019-06-01T18:15:00Z,29.1144,-90.1840,1.0,3.1,250.0,30.2,'11111222,11111222,11111222' 
LUMCON,ioos:station:LUMCON:wisl1:1,2019-06-01T18:30:00Z,29.1144,-90.1840,1.0,2.7,254.0,29.9,'11111222,11111222,11111222' 
LUMCON,ioos:station:LUMCON:wisl1:1,2019-06-01T18:45:00Z,29.1144,-90.1840,1.0,2.2,195.0,30.0,'11111222,11111222,11111222' 
LUMCON,ioos:station:LUMCON:wisl1:1,2019-06-01T19:00:00Z,29.1144,-90.1840,1.0,2.8,208.0,30.2,'11111222,11111222,11111222' 
LUMCON,ioos:station:LUMCON:wisl1:1,2019-06-01T19:15:00Z,29.1144,-90.1840,1.0,3.1,195.0,30.0,'11111222,11111222,11111222' 
LUMCON,ioos:station:LUMCON:wisl1:1,2019-06-01T19:30:00Z,29.1144,-90.1840,1.0,5.1,199.0,29.7,'11111222,11111222,11111222' 
LUMCON,ioos:station:LUMCON:wisl1:1,2019-06-01T19:45:00Z,29.1144,-90.1840,1.0,4.3,180.0,29.7,'11111222,11111222,11111222' 
LUMCON,ioos:station:LUMCON:wisl1:1,2019-06-01T20:00:00Z,29.1144,-90.1840,1.0,4.4,222.0,30.1,'11111222,11111222,11111222' 
LUMCON,ioos:station:LUMCON:wisl1:1,2019-06-01T20:15:00Z,29.1144,-90.1840,1.0,2.8,187.0,30.0,'11111222,11111222,11111222' 
LUMCON,ioos:station:LUMCON:wisl1:1,2019-06-01T20:30:00Z,29.1144,-90.1840,1.0,3.1,214.0,30.1,'11111222,11111222,11111222' 
LUMCON,ioos:station:LUMCON:wisl1:1,2019-06-01T20:45:00Z,29.1144,-90.1840,1.0,4.9,215.0,30.3,'11111222,11111222,11111222' 
LUMCON,ioos:station:LUMCON:wisl1:1,2019-06-01T21:00:00Z,29.1144,-90.1840,1.0,3.4,214.0,29.9,'11111222,11111222,11111222' 
LUMCON,ioos:station:LUMCON:wisl1:1,2019-06-01T21:15:00Z,29.1144,-90.1840,1.0,4.2,211.0,30.3,'11111222,11111222,11111222' 
LUMCON,ioos:station:LUMCON:wisl1:1,2019-06-01T21:30:00Z,29.1144,-90.1840,1.0,5.2,211.0,30.2,'11111222,11111222,11111222' 
LUMCON,ioos:station:LUMCON:wisl1:1,2019-06-01T21:45:00Z,29.1144,-90.1840,1.0,4.2,230.0,30.0,'11111222,11111222,11111222' 
LUMCON,ioos:station:LUMCON:wisl1:1,2019-06-01T22:00:00Z,29.1144,-90.1840,1.0,4.7,204.0,30.0,'11111222,11111222,11111222' 
LUMCON,ioos:station:LUMCON:wisl1:1,2019-06-01T22:15:00Z,29.1144,-90.1840,1.0,6.2,207.0,30.0,'11111222,11111222,11111222' 
LUMCON,ioos:station:LUMCON:wisl1:1,2019-06-01T22:30:00Z,29.1144,-90.1840,1.0,5.3,205.0,30.1,'11111222,11111222,11111222' 
LUMCON,ioos:station:LUMCON:wisl1:1,2019-06-01T22:45:00Z,29.1144,-90.1840,1.0,4.5,212.0,29.8,'11111222,11111222,11111222' 
LUMCON,ioos:station:LUMCON:wisl1:1,2019-06-01T23:00:00Z,29.1144,-90.1840,1.0,6.0,209.0,29.8,'11111222,11111222,11111222' 
LUMCON,ioos:station:LUMCON:wisl1:1,2019-06-01T23:15:00Z,29.1144,-90.1840,1.0,4.4,209.0,29.9,'11111222,11111222,11111222' 
LUMCON,ioos:station:LUMCON:wisl1:1,2019-06-01T23:30:00Z,29.1144,-90.1840,1.0,4.3,239.0,29.8,'11111222,11111222,11111222' 
LUMCON,ioos:station:LUMCON:wisl1:1,2019-06-01T23:45:00Z,29.1144,-90.1840,1.0,5.7,227.0,29.8,'11111222,11111222,11111222' 
LUMCON,ioos:station:LUMCON:wisl1:1,2019-06-02T00:00:00Z,29.1144,-90.1840,1.0,2.5,227.0,29.8,'11111222,11111222,11111222' 
LUMCON,ioos:station:LUMCON:wisl1:1,2019-06-02T00:15:00Z,29.1144,-90.1840,1.0,3.6,202.0,29.6,'11111222,11111222,11111222' 
LUMCON,ioos:station:LUMCON:wisl1:1,2019-06-02T00:30:00Z,29.1144,-90.1840,1.0,3.6,214.0,29.4,'11111222,11111222,11111222' 
LUMCON,ioos:station:LUMCON:wisl1:1,2019-06-02T00:45:00Z,29.1144,-90.1840,1.0,5.0,205.0,29.2,'11111222,11111222,11111222' 
LUMCON,ioos:station:LUMCON:wisl1:1,2019-06-02T01:00:00Z,29.1144,-90.1840,1.0,3.7,219.0,29.1,'11111222,11111222,11111222' 
LUMCON,ioos:station:LUMCON:wisl1:1,2019-06-02T01:15:00Z,29.1144,-90.1840,1.0,3.3,239.0,28.8,'11111222,11111222,11111222' 
LUMCON,ioos:station:LUMCON:wisl1:1,2019-06-02T01:30:00Z,29.1144,-90.1840,1.0,3.6,234.0,28.8,'11111222,11111222,11111222' 
LUMCON,ioos:station:LUMCON:wisl1:1,2019-06-02T01:45:00Z,29.1144,-90.1840,1.0,3.7,215.0,28.7,'11111222,11111222,11111222' 
LUMCON,ioos:station:LUMCON:wisl1:1,2019-06-02T02:00:00Z,29.1144,-90.1840,1.0,3.2,215.0,28.6,'11111222,11111222,11111222' 
LUMCON,ioos:station:LUMCON:wisl1:1,2019-06-02T02:15:00Z,29.1144,-90.1840,1.0,2.4,208.0,28.6,'11111222,11111222,11111222' 
LUMCON,ioos:station:LUMCON:wisl1:1,2019-06-02T02:30:00Z,29.1144,-90.1840,1.0,3.0,224.0,28.6,'11111222,11111222,11111222' 
LUMCON,ioos:station:LUMCON:wisl1:1,2019-06-02T02:45:00Z,29.1144,-90.1840,1.0,3.4,228.0,28.5,'11111222,11111222,11111222' 
LUMCON,ioos:station:LUMCON:wisl1:1,2019-06-02T03:00:00Z,29.1144,-90.1840,1.0,2.4,244.0,28.4,'11111222,11111222,11111222' 
LUMCON,ioos:station:LUMCON:wisl1:1,2019-06-02T03:15:00Z,29.1144,-90.1840,1.0,2.8,216.0,28.4,'11111222,11111222,11111222' 
LUMCON,ioos:station:LUMCON:wisl1:1,2019-06-02T03:30:00Z,29.1144,-90.1840,1.0,2.8,221.0,28.4,'11111222,11111222,11111222' 
LUMCON,ioos:station:LUMCON:wisl1:1,2019-06-02T03:45:00Z,29.1144,-90.1840,1.0,3.4,213.0,28.4,'11111222,11111222,11111222' 
LUMCON,ioos:station:LUMCON:wisl1:1,2019-06-02T04:00:00Z,29.1144,-90.1840,1.0,2.8,194.0,28.3,'11111222,11111222,11111222' 
LUMCON,ioos:station:LUMCON:wisl1:1,2019-06-02T04:15:00Z,29.1144,-90.1840,1.0,2.8,207.0,28.2,'11111222,11111222,11111222' 
LUMCON,ioos:station:LUMCON:wisl1:1,2019-06-02T04:30:00Z,29.1144,-90.1840,1.0,2.3,197.0,28.3,'11111222,11111222,11111222' 
LUMCON,ioos:station:LUMCON:wisl1:1,2019-06-02T04:45:00Z,29.1144,-90.1840,1.0,3.0,215.0,28.2,'11111222,11111222,11111222' 
LUMCON,ioos:station:LUMCON:wisl1:1,2019-06-02T05:00:00Z,29.1144,-90.1840,1.0,3.2,206.0,28.2,'11111222,11111222,11111222' 
LUMCON,ioos:station:LUMCON:wisl1:1,2019-06-02T05:15:00Z,29.1144,-90.1840,1.0,2.1,225.0,28.1,'11111222,11111222,11111222' 
LUMCON,ioos:station:LUMCON:wisl1:1,2019-06-02T05:30:00Z,29.1144,-90.1840,1.0,3.0,233.0,28.0,'11111222,11111222,11111222' 
LUMCON,ioos:station:LUMCON:wisl1:1,2019-06-02T05:45:00Z,29.1144,-90.1840,1.0,3.4,209.0,27.9,'11111222,11111222,11111222' 
LUMCON,ioos:station:LUMCON:wisl1:1,2019-06-02T06:00:00Z,29.1144,-90.1840,1.0,3.1,207.0,28.1,'11111222,11111222,11111222' 
LUMCON,ioos:station:LUMCON:wisl1:1,2019-06-02T06:15:00Z,29.1144,-90.1840,1.0,3.8,198.0,28.1,'11111222,11111222,11111222' 
LUMCON,ioos:station:LUMCON:wisl1:1,2019-06-02T06:30:00Z,29.1144,-90.1840,1.0,4.7,203.0,28.1,'11111222,11111222,11111222' 
LUMCON,ioos:station:LUMCON:wisl1:1,2019-06-02T06:45:00Z,29.1144,-90.1840,1.0,3.4,234.0,28.0,'11111222,11111222,11111222' 
LUMCON,ioos:station:LUMCON:wisl1:1,2019-06-02T07:00:00Z,29.1144,-90.1840,1.0,3.2,212.0,27.8,'11111222,11111222,11111222' 
LUMCON,ioos:station:LUMCON:wisl1:1,2019-06-02T07:15:00Z,29.1144,-90.1840,1.0,4.0,212.0,27.8,'11111222,11111222,11111222' 
LUMCON,ioos:station:LUMCON:wisl1:1,2019-06-02T07:30:00Z,29.1144,-90.1840,1.0,3.5,217.0,27.8,'11111222,11111222,11111222' 
LUMCON,ioos:station:LUMCON:wisl1:1,2019-06-02T07:45:00Z,29.1144,-90.1840,1.0,3.6,209.0,27.8,'11111222,11111222,11111222' 
LUMCON,ioos:station:LUMCON:wisl1:1,2019-06-02T08:00:00Z,29.1144,-90.1840,1.0,3.5,225.0,27.9,'11111222,11111222,11111222' 
LUMCON,ioos:station:LUMCON:wisl1:1,2019-06-02T08:15:00Z,29.1144,-90.1840,1.0,3.2,217.0,27.8,'11111222,11111222,11111222' 
LUMCON,ioos:station:LUMCON:wisl1:1,2019-06-02T08:30:00Z,29.1144,-90.1840,1.0,3.1,223.0,27.8,'11111222,11111222,11111222' 
LUMCON,ioos:station:LUMCON:wisl1:1,2019-06-02T08:45:00Z,29.1144,-90.1840,1.0,3.3,244.0,27.7,'11111222,11111222,11111222' 
LUMCON,ioos:station:LUMCON:wisl1:1,2019-06-02T09:00:00Z,29.1144,-90.1840,1.0,4.4,216.0,27.7,'11111222,11111222,11111222' 
LUMCON,ioos:station:LUMCON:wisl1:1,2019-06-02T09:15:00Z,29.1144,-90.1840,1.0,3.2,215.0,27.7,'11111222,11111222,11111222' 
LUMCON,ioos:station:LUMCON:wisl1:1,2019-06-02T09:30:00Z,29.1144,-90.1840,1.0,2.9,232.0,27.7,'11111222,11111222,11111222' 
LUMCON,ioos:station:LUMCON:wisl1:1,2019-06-02T09:45:00Z,29.1144,-90.1840,1.0,3.6,213.0,27.7,'11111222,11111222,11111222' 
LUMCON,ioos:station:LUMCON:wisl1:1,2019-06-02T10:00:00Z,29.1144,-90.1840,1.0,3.5,221.0,27.7,'11111222,11111222,11111222' 
LUMCON,ioos:station:LUMCON:wisl1:1,2019-06-02T10:15:00Z,29.1144,-90.1840,1.0,4.5,222.0,27.6,'11111222,11111222,11111222' 
LUMCON,ioos:station:LUMCON:wisl1:1,2019-06-02T10:30:00Z,29.1144,-90.1840,1.0,4.8,220.0,27.6,'11111222,11111222,11111222' 
LUMCON,ioos:station:LUMCON:wisl1:1,2019-06-02T10:45:00Z,29.1144,-90.1840,1.0,2.8,223.0,27.7,'11111222,11111222,11111222' 
LUMCON,ioos:station:LUMCON:wisl1:1,2019-06-02T11:00:00Z,29.1144,-90.1840,1.0,4.7,230.0,27.6,'11111222,11111222,11111222' 
LUMCON,ioos:station:LUMCON:wisl1:1,2019-06-02T11:15:00Z,29.1144,-90.1840,1.0,4.2,233.0,27.7,'11111222,11111222,11111222' 
LUMCON,ioos:station:LUMCON:wisl1:1,2019-06-02T11:30:00Z,29.1144,-90.1840,1.0,2.3,260.0,27.7,'11111222,11111222,11111222' 
LUMCON,ioos:station:LUMCON:wisl1:1,2019-06-02T11:45:00Z,29.1144,-90.1840,1.0,4.8,278.0,28.1,'11111222,11111222,11111222' 
LUMCON,ioos:station:LUMCON:wisl1:1,2019-06-02T12:00:00Z,29.1144,-90.1840,1.0,5.1,271.0,28.3,'11111222,11111222,11111222' 
LUMCON,ioos:station:LUMCON:wisl1:1,2019-06-02T12:15:00Z,29.1144,-90.1840,1.0,2.9,242.0,28.4,'11111222,11111222,11111222' 
LUMCON,ioos:station:LUMCON:wisl1:1,2019-06-02T12:30:00Z,29.1144,-90.1840,1.0,4.7,278.0,28.5,'11111222,11111222,11111222' 
LUMCON,ioos:station:LUMCON:wisl1:1,2019-06-02T12:45:00Z,29.1144,-90.1840,1.0,4.7,256.0,28.6,'11111222,11111222,11111222' 
LUMCON,ioos:station:LUMCON:wisl1:1,2019-06-02T13:00:00Z,29.1144,-90.1840,1.0,4.5,275.0,28.7,'11111222,11111222,11111222' 
LUMCON,ioos:station:LUMCON:wisl1:1,2019-06-02T13:15:00Z,29.1144,-90.1840,1.0,3.5,267.0,28.9,'11111222,11111222,11111222' 
LUMCON,ioos:station:LUMCON:wisl1:1,2019-06-02T13:30:00Z,29.1144,-90.1840,1.0,5.1,254.0,28.7,'11111222,11111222,11111222' 
LUMCON,ioos:station:LUMCON:wisl1:1,2019-06-02T13:45:00Z,29.1144,-90.1840,1.0,4.5,261.0,28.6,'11111222,11111222,11111222' 
LUMCON,ioos:station:LUMCON:wisl1:1,2019-06-02T14:00:00Z,29.1144,-90.1840,1.0,3.5,275.0,28.8,'11111222,11111222,11111222' 
LUMCON,ioos:station:LUMCON:wisl1:1,2019-06-02T14:15:00Z,29.1144,-90.1840,1.0,4.3,265.0,28.8,'11111222,11111222,11111222' 
LUMCON,ioos:station:LUMCON:wisl1:1,2019-06-02T14:30:00Z,29.1144,-90.1840,1.0,4.8,271.0,28.9,'11111222,11111222,11111222' 
LUMCON,ioos:station:LUMCON:wisl1:1,2019-06-02T14:45:00Z,29.1144,-90.1840,1.0,4.8,261.0,28.8,'11111222,11111222,11111222' 
LUMCON,ioos:station:LUMCON:wisl1:1,2019-06-02T15:00:00Z,29.1144,-90.1840,1.0,2.4,300.0,29.2,'11111222,11111222,11111222' 
LUMCON,ioos:station:LUMCON:wisl1:1,2019-06-02T15:15:00Z,29.1144,-90.1840,1.0,5.4,274.0,29.1,'11111222,11111222,11111222' 
LUMCON,ioos:station:LUMCON:wisl1:1,2019-06-02T15:30:00Z,29.1144,-90.1840,1.0,4.2,285.0,29.5,'11111222,11111222,11111222' 
LUMCON,ioos:station:LUMCON:wisl1:1,2019-06-02T15:45:00Z,29.1144,-90.1840,1.0,5.6,261.0,29.6,'11111222,11111222,11111222' 
LUMCON,ioos:station:LUMCON:wisl1:1,2019-06-02T16:00:00Z,29.1144,-90.1840,1.0,4.1,298.0,29.4,'11111222,11111222,11111222' 
LUMCON,ioos:station:LUMCON:wisl1:1,2019-06-02T16:15:00Z,29.1144,-90.1840,1.0,6.1,268.0,29.4,'11111222,11111222,11111222' 
LUMCON,ioos:station:LUMCON:wisl1:1,2019-06-02T16:30:00Z,29.1144,-90.1840,1.0,3.3,264.0,29.7,'11111222,11111222,11111222' 
LUMCON,ioos:station:LUMCON:wisl1:1,2019-06-02T16:45:00Z,29.1144,-90.1840,1.0,3.6,283.0,30.0,'11111222,11111222,11111222' 
LUMCON,ioos:station:LUMCON:wisl1:1,2019-06-02T17:00:00Z,29.1144,-90.1840,1.0,3.9,276.0,30.0,'11111222,11111222,11111222' 
LUMCON,ioos:station:LUMCON:wisl1:1,2019-06-02T17:15:00Z,29.1144,-90.1840,1.0,2.5,285.0,30.0,'11111222,11111222,11111222' 
LUMCON,ioos:station:LUMCON:wisl1:1,2019-06-02T17:30:00Z,29.1144,-90.1840,1.0,4.3,256.0,30.6,'11111222,11111222,11111222' 
LUMCON,ioos:station:LUMCON:wisl1:1,2019-06-02T17:45:00Z,29.1144,-90.1840,1.0,3.1,231.0,30.5,'11111222,11111222,11111222' 
LUMCON,ioos:station:LUMCON:wisl1:1,2019-06-02T18:00:00Z,29.1144,-90.1840,1.0,3.6,225.0,30.7,'11111222,11111222,11111222' 
LUMCON,ioos:station:LUMCON:wisl1:1,2019-06-02T18:15:00Z,29.1144,-90.1840,1.0,3.2,235.0,30.7,'11111222,11111222,11111222' 
LUMCON,ioos:station:LUMCON:wisl1:1,2019-06-02T18:30:00Z,29.1144,-90.1840,1.0,2.1,253.0,31.1,'11111222,11111222,11111222' 
LUMCON,ioos:station:LUMCON:wisl1:1,2019-06-02T18:45:00Z,29.1144,-90.1840,1.0,2.4,280.0,30.7,'11111222,11111222,11111222' 
LUMCON,ioos:station:LUMCON:wisl1:1,2019-06-02T19:00:00Z,29.1144,-90.1840,1.0,1.4,215.0,30.8,'11111222,11111222,11111222' 
LUMCON,ioos:station:LUMCON:wisl1:1,2019-06-02T19:15:00Z,29.1144,-90.1840,1.0,3.6,222.0,30.7,'11111222,11111222,11111222' 
LUMCON,ioos:station:LUMCON:wisl1:1,2019-06-02T19:30:00Z,29.1144,-90.1840,1.0,3.1,235.0,31.2,'11111222,11111222,11111222' 
LUMCON,ioos:station:LUMCON:wisl1:1,2019-06-02T19:45:00Z,29.1144,-90.1840,1.0,4.1,246.0,30.9,'11111222,11111222,11111222' 
LUMCON,ioos:station:LUMCON:wisl1:1,2019-06-02T20:00:00Z,29.1144,-90.1840,1.0,1.6,206.0,31.6,'11111222,11111222,11111222' 
LUMCON,ioos:station:LUMCON:wisl1:1,2019-06-02T20:15:00Z,29.1144,-90.1840,1.0,3.6,156.0,31.3,'11111222,11111222,11111222' 
LUMCON,ioos:station:LUMCON:wisl1:1,2019-06-02T20:30:00Z,29.1144,-90.1840,1.0,4.3,155.0,30.8,'11111222,11111222,11111222' 
LUMCON,ioos:station:LUMCON:wisl1:1,2019-06-02T20:45:00Z,29.1144,-90.1840,1.0,6.4,164.0,30.8,'11111222,11111222,11111222' 
LUMCON,ioos:station:LUMCON:wisl1:1,2019-06-02T21:00:00Z,29.1144,-90.1840,1.0,5.4,159.0,30.3,'11111222,11111222,11111222' 
LUMCON,ioos:station:LUMCON:wisl1:1,2019-06-02T21:15:00Z,29.1144,-90.1840,1.0,4.0,190.0,30.8,'11111222,11111222,11111222' 
LUMCON,ioos:station:LUMCON:wisl1:1,2019-06-02T21:30:00Z,29.1144,-90.1840,1.0,5.1,164.0,30.6,'11111222,11111222,11111222' 
LUMCON,ioos:station:LUMCON:wisl1:1,2019-06-02T21:45:00Z,29.1144,-90.1840,1.0,4.5,178.0,30.6,'11111222,11111222,11111222' 
LUMCON,ioos:station:LUMCON:wisl1:1,2019-06-02T22:00:00Z,29.1144,-90.1840,1.0,3.9,176.0,30.6,'11111222,11111222,11111222' 
LUMCON,ioos:station:LUMCON:wisl1:1,2019-06-02T22:15:00Z,29.1144,-90.1840,1.0,2.6,208.0,30.6,'11111222,11111222,11111222' 
LUMCON,ioos:station:LUMCON:wisl1:1,2019-06-02T22:30:00Z,29.1144,-90.1840,1.0,15.2,12.0,25.7,'11111222,11111222,11111222' 
LUMCON,ioos:station:LUMCON:wisl1:1,2019-06-02T22:45:00Z,29.1144,-90.1840,1.0,2.3,139.0,25.6,'11111222,11111222,11111222' 
LUMCON,ioos:station:LUMCON:wisl1:1,2019-06-02T23:00:00Z,29.1144,-90.1840,1.0,2.3,218.0,24.7,'11111222,11111222,11111222' 
LUMCON,ioos:station:LUMCON:wisl1:1,2019-06-02T23:15:00Z,29.1144,-90.1840,1.0,2.6,233.0,25.0,'11111222,11111222,11111222' 
LUMCON,ioos:station:LUMCON:wisl1:1,2019-06-02T23:30:00Z,29.1144,-90.1840,1.0,4.9,196.0,25.5,'11111222,11111222,11111222' 
LUMCON,ioos:station:LUMCON:wisl1:1,2019-06-02T23:45:00Z,29.1144,-90.1840,1.0,4.0,203.0,26.1,'11111222,11111222,11111222' 
LUMCON,ioos:station:LUMCON:wisl1:1,2019-06-03T00:00:00Z,29.1144,-90.1840,1.0,5.1,212.0,26.6,'11111222,11111222,11111222' 
LUMCON,ioos:station:LUMCON:wisl1:1,2019-06-03T00:15:00Z,29.1144,-90.1840,1.0,3.8,204.0,27.2,'11111222,11111222,11111222' 
LUMCON,ioos:station:LUMCON:wisl1:1,2019-06-03T00:30:00Z,29.1144,-90.1840,1.0,4.9,206.0,27.2,'11111222,11111222,11111222' 